CW0565 Weather Reports


time (UTC)temp
F
wind
direction
speed
knots
gust
knots
rain 1hr
in
rain 24hr
in
rain mn
in
humidity
%
barometer
mb
20260504204526 45 236 3.5 9.6 0.00 0.00 0.00 74 1009.0
20260504203015 46 259 5.2 12.2 0.00 0.00 0.00 73 1009.0
20260504201509 46 222 4.3 8.7 0.00 0.00 0.00 72 1008.8
20260504194509 47 252 5.2 13.0 0.00 0.00 0.00 69 1008.6
20260504190010 48 240 7.8 15.6 0.00 0.00 0.00 61 1008.4
20260504184511 49 244 7.0 14.8 0.00 0.00 0.00 60 1008.2
20260504183011 49 259 7.0 14.8 0.00 0.00 0.00 58 1008.1
20260504181513 50 248 7.0 22.6 0.00 0.00 0.00 58 1008.1
20260504180012 50 251 7.0 17.4 0.00 0.00 0.00 58 1008.1
20260504174510 51 268 10.4 16.5 0.00 0.00 0.00 56 1008.1
20260504173010 51 286 10.4 19.1 0.00 0.00 0.00 53 1008.2
20260504171511 51 285 4.3 16.5 0.00 0.00 0.00 54 1008.2
20260504081509 52 333 5.2 14.8 0.00 0.00 0.00 43 1007.6
20260504050009 40 20 1.7 4.3 0.00 0.00 0.00 81 1005.8
20260504044515 38 25 0.0 2.6 0.00 0.00 0.00 82 1005.8
20260504043017 39 25 1.7 5.2 0.00 0.00 0.00 82 1005.7
20260504041510 40 33 0.9 5.2 0.00 0.00 0.00 79 1005.4
20260504040010 40 30 4.3 9.6 0.00 0.01 0.00 82 1005.4
20260504034509 39 355 2.6 8.7 0.00 0.01 0.00 89 1005.4
20260504033010 39 11 3.5 7.0 0.00 0.01 0.00 92 1005.2
20260504031510 39 16 5.2 7.8 0.00 0.01 0.00 94 1005.1
20260504030008 39 343 0.0 3.5 0.00 0.01 0.00 95 1005.1
20260504024510 39 343 0.0 5.2 0.00 0.01 0.00 95 1005.0
20260504023010 39 345 0.9 5.2 0.00 0.01 0.00 95 1005.0
20260504021511 40 5 3.5 7.8 0.00 0.01 0.00 95 1005.1
20260504020016 40 40 5.2 9.6 0.00 0.01 0.00 95 1005.1
20260504014512 40 355 4.3 7.8 0.00 0.01 0.00 95 1005.0
20260504013012 40 346 1.7 5.2 0.00 0.01 0.00 95 1005.0
20260504011510 41 32 0.0 5.2 0.00 0.01 0.00 94 1005.0
20260504010008 41 5 0.9 4.3 0.00 0.01 0.00 94 1005.0
20260504004509 40 9 0.0 2.6 0.00 0.01 0.00 93 1005.1
20260504003009 40 9 0.0 3.5 0.00 0.01 0.00 92 1005.2
20260504001510 41 16 0.9 4.3 0.00 0.01 0.00 92 1005.3
20260504000009 41 22 0.9 4.3 0.00 0.01 0.00 91 1005.3
20260503233009 42 98 0.0 2.6 0.00 0.01 0.00 90 1005.5
20260503231511 43 140 0.0 0.0 0.00 0.01 0.00 89 1005.6
20260503230010 43 140 0.0 1.7 0.00 0.01 0.00 88 1005.6
20260503224510 44 148 0.0 0.0 0.00 0.01 0.00 88 1005.8
20260503223010 45 148 0.0 0.0 0.00 0.01 0.00 88 1006.0
20260503221502 45 149 0.0 0.0 0.00 0.01 0.00 87 1006.0
20260503220010 45 148 0.0 0.0 0.00 0.01 0.01 87 1005.8
20260503214510 46 148 0.0 0.0 0.00 0.01 0.01 88 1006.2
20260503213011 46 148 0.0 0.9 0.00 0.01 0.01 87 1006.2
20260503211509 46 148 0.0 1.7 0.00 0.01 0.01 87 1006.2
20260503210010 46 150 0.9 2.6 0.00 0.01 0.01 87 1006.3